Location: Flotzheim
(48.8375°N, 10.8136°E)
Time: 03:24:29
(UTC+00:00)

X-37B - Pass Details

Date: 23 January 2021
Orbit: 383 x 391 km, 45.0° (Epoch: 10 February)

Event Time Altitude Azimuth Distance (km) Brightness Sun altitude
Rises 17:47:24 0° 250° (WSW) 2,271 6.1 -17.4°
Reaches altitude 10° 17:49:32 10° 242° (WSW) 1,418 4.5 -17.7°
Maximum altitude 17:52:32 38° 172° (S) 613 1.5 -18.2°
Enters shadow 17:52:52 37° 155° (SSE) 629 1.4 -18.3°
